sat.trackr.live / text

‹ back to catalog

STARLINK-33563

NORAD 62284 · 2024-237T

PAYLOAD ACTIVE UNKNOWN

§ Identity

Operator
Country
US
Launch date
2024-12-08
Launch site
AFETR
Launch vehicle
Mass (kg)
RCS (m²)

Purposes: comms

External: N2YO · Heavens-Above · Gunter

§ Orbital elements

Epoch: 2026-05-25T00:18:46.802016Z

Period
94.26 min
Inclination
43.0000°
Eccentricity
0.0001425
Mean motion
15.27609440 rev/d
Perigee alt
482.0 km
Apogee alt
483.9 km
Semi-major
6,861.1 km
B*
6.1827e-4
RAAN
145.4038°
Arg perigee
255.0396°
Mean anomaly
105.0298°
Rev number
8,286

§ Raw data

STARLINK-335631 62284U 24237T   26145.01304169  .00016805  00000+0  61827-3 0  99982 62284  43.0000 145.4038 0001425 255.0396 105.0298 15.27609440 82865

JSON: /api/v1/satellites/62284 · /tle

For live sub-satellite position, see the globe view (requires WebGL).

§ Visibility from observer

Set your observer location to see the next 7 days of passes ≥ 10°. The values pass through the URL so the page stays shareable.

No JS? Fill the form by hand. The geolocation button needs JavaScript.